CQH0258 ZSJN-ZUUU

Flight info

Callsign CQH0258
Flight time 1h 57m
Altitude 32100
Route EXUVU W4 LIMGI W152 BUBDU W276 ANRUG W279 ONEBA G212 SUBUL W230 AKDIK
Aircraft A320/M-SDE3FGHIRWY/LB1

Departure

Time 2026-05-05 08:56
Airport Jinan Yaoqiang International Airport (ZSJN)

Arrival

Time 2026-05-05 10:53
Airport Chengdu Shuangliu International Airport (ZUUU)
Time Latitude Longitude Altitude Speed Heading
2026-05-05 08:27 36.85444 117.21037 83 ft 0 kts 335°
2026-05-05 08:44 36.85435 117.21042 86 ft 4 kts 335°
2026-05-05 08:44 36.85410 117.21055 84 ft 4 kts 346°
2026-05-05 08:44 36.85385 117.21057 83 ft 4 kts 21°
2026-05-05 08:45 36.85369 117.21042 81 ft 1 kts 65°
2026-05-05 08:45 36.85367 117.21038 81 ft 0 kts 65°
2026-05-05 08:48 36.85374 117.21056 91 ft 5 kts 66°
2026-05-05 08:48 36.85393 117.21111 81 ft 7 kts 66°
2026-05-05 08:48 36.85398 117.21125 81 ft 0 kts 66°
2026-05-05 08:49 36.85399 117.21129 84 ft 2 kts 66°
2026-05-05 08:49 36.85411 117.21162 81 ft 6 kts 66°
2026-05-05 08:50 36.85433 117.21222 82 ft 9 kts 62°
2026-05-05 08:50 36.85464 117.21305 82 ft 11 kts 79°
2026-05-05 08:50 36.85516 117.21372 85 ft 13 kts
2026-05-05 08:50 36.85609 117.21370 83 ft 14 kts
2026-05-05 08:51 36.85698 117.21371 86 ft 13 kts
2026-05-05 08:51 36.85793 117.21371 84 ft 14 kts
2026-05-05 08:51 36.85900 117.21371 83 ft 18 kts
2026-05-05 08:51 36.86044 117.21371 82 ft 24 kts
2026-05-05 08:52 36.86228 117.21370 82 ft 27 kts 360°
2026-05-05 08:52 36.86391 117.21371 85 ft 22 kts
2026-05-05 08:52 36.86540 117.21371 83 ft 20 kts 360°
2026-05-05 08:52 36.86676 117.21372 82 ft 19 kts
2026-05-05 08:53 36.86797 117.21372 81 ft 16 kts
2026-05-05 08:53 36.86910 117.21371 82 ft 18 kts 360°
2026-05-05 08:53 36.87057 117.21372 81 ft 23 kts
2026-05-05 08:53 36.87206 117.21370 84 ft 20 kts 359°
2026-05-05 08:54 36.87325 117.21375 83 ft 12 kts 18°
2026-05-05 08:54 36.87341 117.21451 84 ft 9 kts 94°
2026-05-05 08:54 36.87339 117.21532 87 ft 10 kts 90°
2026-05-05 08:54 36.87295 117.21594 91 ft 13 kts 171°
2026-05-05 08:55 36.87210 117.21594 88 ft 29 kts 180°
2026-05-05 08:55 36.86524 117.21595 87 ft 114 kts 180°
2026-05-05 08:55 36.85566 117.21605 103 ft 158 kts 181°
2026-05-05 08:55 36.84796 117.21628 366 ft 168 kts 181°
2026-05-05 08:56 36.83224 117.21671 1242 ft 170 kts 181°
2026-05-05 08:56 36.82428 117.21696 1763 ft 169 kts 183°
2026-05-05 08:56 36.81263 117.21282 2203 ft 187 kts 214°
2026-05-05 08:56 36.80414 117.19929 2527 ft 217 kts 248°
2026-05-05 08:57 36.80375 117.17958 3133 ft 239 kts 275°
2026-05-05 08:57 36.80690 117.15913 3967 ft 242 kts 275°
2026-05-05 08:57 36.81024 117.13839 4811 ft 245 kts 276°
2026-05-05 08:57 36.81359 117.11782 5631 ft 246 kts 275°
2026-05-05 08:58 36.81696 117.09686 6439 ft 247 kts 275°
2026-05-05 08:58 36.82035 117.07546 7224 ft 249 kts 276°
2026-05-05 08:58 36.82395 117.05443 7992 ft 255 kts 283°
2026-05-05 08:58 36.83277 117.03444 8744 ft 269 kts 306°
2026-05-05 08:59 36.84818 117.01935 9148 ft 294 kts 327°
2026-05-05 08:59 36.86602 117.00697 9818 ft 299 kts 327°
2026-05-05 08:59 36.88472 116.99393 10313 ft 313 kts 327°
2026-05-05 08:59 36.90415 116.98024 10511 ft 336 kts 327°
2026-05-05 09:00 36.92515 116.96534 10663 ft 359 kts 327°
2026-05-05 09:00 36.94776 116.94927 10786 ft 380 kts 327°
2026-05-05 09:00 36.97100 116.93273 10989 ft 396 kts 328°
2026-05-05 09:00 36.99520 116.91553 11516 ft 402 kts 328°
2026-05-05 09:01 37.01958 116.89821 12130 ft 404 kts 328°
2026-05-05 09:01 37.04409 116.88078 12774 ft 406 kts 328°
2026-05-05 09:01 37.06862 116.86328 13423 ft 406 kts 327°
2026-05-05 09:01 37.09095 116.84189 13960 ft 405 kts 311°
2026-05-05 09:02 37.10655 116.81288 14471 ft 404 kts 293°
2026-05-05 09:02 37.11377 116.77906 14995 ft 405 kts 275°
2026-05-05 09:02 37.11182 116.74384 15460 ft 409 kts 257°
2026-05-05 09:02 37.10188 116.71033 15922 ft 413 kts 248°
2026-05-05 09:03 37.09055 116.67712 16376 ft 416 kts 248°
2026-05-05 09:03 37.07907 116.64370 16819 ft 419 kts 248°
2026-05-05 09:03 37.06749 116.61002 17265 ft 422 kts 249°
2026-05-05 09:03 37.05586 116.57613 17691 ft 425 kts 249°
2026-05-05 09:04 37.04417 116.54192 18124 ft 429 kts 249°
2026-05-05 09:04 37.03242 116.50751 18500 ft 431 kts 249°
2026-05-05 09:04 37.02061 116.47293 18883 ft 434 kts 249°
2026-05-05 09:04 37.00878 116.43820 19252 ft 436 kts 249°
2026-05-05 09:05 36.99682 116.40318 19628 ft 438 kts 249°
2026-05-05 09:05 36.98480 116.36807 19995 ft 440 kts 249°
2026-05-05 09:05 36.97270 116.33284 20349 ft 442 kts 249°
2026-05-05 09:05 36.96052 116.29747 20699 ft 444 kts 249°
2026-05-05 09:06 36.94827 116.26195 21028 ft 447 kts 249°
2026-05-05 09:06 36.93592 116.22624 21377 ft 449 kts 249°
2026-05-05 09:06 36.92349 116.19034 21712 ft 451 kts 249°
2026-05-05 09:06 36.91102 116.15431 22038 ft 452 kts 249°
2026-05-05 09:07 36.89852 116.11818 22363 ft 454 kts 249°
2026-05-05 09:07 36.88596 116.08191 22662 ft 456 kts 249°
2026-05-05 09:07 36.87332 116.04547 22967 ft 458 kts 249°
2026-05-05 09:07 36.86060 116.00885 23261 ft 460 kts 249°
2026-05-05 09:08 36.84783 115.97206 23510 ft 462 kts 249°
2026-05-05 09:08 36.83500 115.93521 23751 ft 464 kts 249°
2026-05-05 09:08 36.82212 115.89821 23997 ft 466 kts 249°
2026-05-05 09:08 36.80899 115.86057 24264 ft 467 kts 249°
2026-05-05 09:09 36.79598 115.82344 24603 ft 466 kts 249°
2026-05-05 09:09 36.78304 115.78645 24937 ft 466 kts 249°
2026-05-05 09:09 36.77026 115.74990 25278 ft 465 kts 249°
2026-05-05 09:09 36.75720 115.71253 25614 ft 465 kts 249°
2026-05-05 09:10 36.74425 115.67560 25957 ft 464 kts 250°
2026-05-05 09:10 36.73124 115.63873 26307 ft 464 kts 250°
2026-05-05 09:10 36.71823 115.60197 26661 ft 463 kts 250°
2026-05-05 09:10 36.70523 115.56523 27006 ft 463 kts 250°
2026-05-05 09:11 36.69242 115.52903 27360 ft 463 kts 250°
2026-05-05 09:11 36.67926 115.49192 27712 ft 462 kts 250°
2026-05-05 09:11 36.66625 115.45533 28071 ft 462 kts 250°
2026-05-05 09:11 36.65326 115.41875 28424 ft 461 kts 250°
2026-05-05 09:12 36.64045 115.38270 28769 ft 461 kts 250°
2026-05-05 09:12 36.62752 115.34626 29124 ft 461 kts 251°
2026-05-05 09:12 36.61458 115.30980 29479 ft 460 kts 251°
2026-05-05 09:12 36.60165 115.27338 29827 ft 460 kts 251°
2026-05-05 09:13 36.58870 115.23699 30139 ft 459 kts 251°
2026-05-05 09:13 36.57577 115.20072 30460 ft 458 kts 251°
2026-05-05 09:13 36.56174 115.16510 30776 ft 461 kts 245°
2026-05-05 09:13 36.54343 115.13204 31086 ft 467 kts 236°
2026-05-05 09:14 36.52091 115.10248 31391 ft 472 kts 229°
2026-05-05 09:14 36.49707 115.07449 31684 ft 472 kts 229°
2026-05-05 09:14 36.47324 115.04643 31798 ft 474 kts 229°
2026-05-05 09:15 36.42517 114.98961 31815 ft 479 kts 229°
2026-05-05 09:15 36.37714 114.93220 31813 ft 477 kts 233°
2026-05-05 09:16 36.33945 114.86605 31813 ft 467 kts 245°
2026-05-05 09:16 36.30669 114.79647 31813 ft 467 kts 245°
2026-05-05 09:17 36.27372 114.72716 31807 ft 468 kts 244°
2026-05-05 09:17 36.23918 114.65869 31807 ft 469 kts 243°
2026-05-05 09:18 36.20379 114.59084 31805 ft 469 kts 243°
2026-05-05 09:18 36.16854 114.52291 31803 ft 468 kts 243°
2026-05-05 09:19 36.13350 114.45486 31799 ft 468 kts 243°
2026-05-05 09:19 36.09857 114.38690 31800 ft 468 kts 243°
2026-05-05 09:20 36.06361 114.31907 31804 ft 468 kts 244°
2026-05-05 09:20 36.02980 114.25047 31804 ft 467 kts 245°
2026-05-05 09:21 35.99689 114.18140 31810 ft 466 kts 245°
2026-05-05 09:21 35.96385 114.11239 31816 ft 467 kts 245°
2026-05-05 09:22 35.93028 114.04367 31821 ft 467 kts 245°
2026-05-05 09:22 35.89659 113.97512 31834 ft 467 kts 245°
2026-05-05 09:23 35.86291 113.90653 31846 ft 467 kts 245°
2026-05-05 09:23 35.82935 113.83793 31862 ft 467 kts 245°
2026-05-05 09:24 35.79573 113.76941 31866 ft 467 kts 245°
2026-05-05 09:24 35.76204 113.70096 31872 ft 467 kts 245°
2026-05-05 09:25 35.72829 113.63252 31881 ft 468 kts 245°
2026-05-05 09:25 35.69446 113.56426 31879 ft 467 kts 245°
2026-05-05 09:26 35.66070 113.49600 31889 ft 467 kts 245°
2026-05-05 09:26 35.62683 113.42773 31891 ft 467 kts 245°
2026-05-05 09:27 35.59292 113.35958 31882 ft 467 kts 245°
2026-05-05 09:27 35.55934 113.29133 31882 ft 467 kts 245°
2026-05-05 09:28 35.52583 113.22307 31866 ft 467 kts 245°
2026-05-05 09:28 35.49214 113.15480 31861 ft 467 kts 245°
2026-05-05 09:29 35.45838 113.08666 31855 ft 467 kts 245°
2026-05-05 09:29 35.42453 113.01860 31847 ft 468 kts 245°
2026-05-05 09:30 35.39068 112.95051 31836 ft 468 kts 245°
2026-05-05 09:30 35.35676 112.88238 31830 ft 469 kts 245°
2026-05-05 09:31 35.32272 112.81425 31827 ft 469 kts 245°
2026-05-05 09:31 35.28864 112.74620 31816 ft 469 kts 245°
2026-05-05 09:32 35.25459 112.67812 31820 ft 470 kts 245°
2026-05-05 09:32 35.22032 112.60993 31815 ft 471 kts 245°
2026-05-05 09:33 35.18604 112.54175 31808 ft 470 kts 246°
2026-05-05 09:33 35.15223 112.47339 31811 ft 470 kts 246°
2026-05-05 09:34 35.12420 112.41651 31803 ft 470 kts 246°
2026-05-05 09:34 35.08466 112.33665 31801 ft 471 kts 246°
2026-05-05 09:35 35.05633 112.27988 31803 ft 471 kts 246°
2026-05-05 09:35 35.00515 112.17751 31801 ft 471 kts 246°
2026-05-05 09:36 34.97094 112.10941 31795 ft 471 kts 245°
2026-05-05 09:36 34.93666 112.04119 31795 ft 471 kts 246°
2026-05-05 09:37 34.90242 111.97298 31794 ft 471 kts 245°
2026-05-05 09:37 34.86810 111.90497 31798 ft 471 kts 245°
2026-05-05 09:38 34.83411 111.83691 31795 ft 470 kts 246°
2026-05-05 09:38 34.80025 111.76878 31790 ft 470 kts 246°
2026-05-05 09:39 34.76638 111.70074 31783 ft 470 kts 246°
2026-05-05 09:39 34.73242 111.63278 31784 ft 470 kts 245°
2026-05-05 09:40 34.69830 111.56486 31786 ft 471 kts 245°
2026-05-05 09:40 34.66412 111.49691 31783 ft 471 kts 245°
2026-05-05 09:41 34.62990 111.42905 31778 ft 471 kts 245°
2026-05-05 09:41 34.59563 111.36117 31776 ft 471 kts 245°
2026-05-05 09:42 34.56138 111.29332 31775 ft 472 kts 245°
2026-05-05 09:42 34.52711 111.22535 31778 ft 473 kts 245°
2026-05-05 09:43 34.49278 111.15726 31779 ft 472 kts 245°
2026-05-05 09:43 34.45846 111.08943 31779 ft 472 kts 245°
2026-05-05 09:44 34.42400 111.02165 31786 ft 472 kts 245°
2026-05-05 09:44 34.38988 110.95364 31788 ft 472 kts 246°
2026-05-05 09:45 34.35626 110.88603 31792 ft 472 kts 246°
2026-05-05 09:45 34.32237 110.81805 31795 ft 472 kts 246°
2026-05-05 09:46 34.28826 110.75018 31800 ft 472 kts 245°
2026-05-05 09:46 34.25408 110.68252 31807 ft 472 kts 246°
2026-05-05 09:47 34.21988 110.61467 31807 ft 472 kts 246°
2026-05-05 09:47 34.18566 110.54697 31817 ft 473 kts 245°
2026-05-05 09:48 34.15132 110.47916 31826 ft 473 kts 245°
2026-05-05 09:48 34.11712 110.41151 31833 ft 472 kts 246°
2026-05-05 09:49 34.08312 110.34371 31831 ft 472 kts 246°
2026-05-05 09:49 34.04918 110.27592 31829 ft 472 kts 246°
2026-05-05 09:50 34.01508 110.20813 31833 ft 472 kts 246°
2026-05-05 09:50 33.98092 110.14055 31832 ft 472 kts 246°
2026-05-05 09:51 33.94663 110.07293 31832 ft 472 kts 246°
2026-05-05 09:51 33.91238 110.00542 31838 ft 472 kts 245°
2026-05-05 09:52 33.87998 109.93714 31840 ft 464 kts 254°
2026-05-05 09:52 33.86123 109.86415 31845 ft 455 kts 262°
2026-05-05 09:53 33.84509 109.79053 31834 ft 455 kts 262°
2026-05-05 09:53 33.82883 109.71697 31850 ft 455 kts 262°
2026-05-05 09:54 33.81251 109.64332 31857 ft 456 kts 262°
2026-05-05 09:54 33.79615 109.56981 31856 ft 455 kts 262°
2026-05-05 09:55 33.77985 109.49631 31853 ft 455 kts 262°
2026-05-05 09:55 33.76371 109.42282 31857 ft 455 kts 262°
2026-05-05 09:56 33.74751 109.34934 31853 ft 455 kts 262°
2026-05-05 09:56 33.73118 109.27591 31856 ft 455 kts 262°
2026-05-05 09:57 33.71480 109.20250 31860 ft 455 kts 262°
2026-05-05 09:57 33.69836 109.12902 31864 ft 455 kts 262°
2026-05-05 09:58 33.68188 109.05566 31872 ft 455 kts 261°
2026-05-05 09:58 33.66534 108.98229 31858 ft 455 kts 261°
2026-05-05 09:59 33.64880 108.90894 31870 ft 455 kts 261°
2026-05-05 09:59 33.63226 108.83580 31881 ft 454 kts 261°
2026-05-05 10:00 33.61568 108.76267 31876 ft 454 kts 261°
2026-05-05 10:00 33.59908 108.68973 31875 ft 453 kts 261°
2026-05-05 10:01 33.58239 108.61678 31880 ft 454 kts 261°
2026-05-05 10:01 33.56568 108.54388 31886 ft 454 kts 261°
2026-05-05 10:02 33.54892 108.47116 31875 ft 453 kts 261°
2026-05-05 10:02 33.53222 108.39836 31876 ft 453 kts 261°
2026-05-05 10:03 33.51550 108.32557 31878 ft 453 kts 260°
2026-05-05 10:03 33.49857 108.25280 31890 ft 453 kts 260°
2026-05-05 10:04 33.47996 108.18059 31879 ft 459 kts 252°
2026-05-05 10:04 33.44456 108.11638 31875 ft 476 kts 232°
2026-05-05 10:05 33.41904 108.08976 31856 ft 485 kts 221°
2026-05-05 10:05 33.39177 108.06686 31853 ft 483 kts 224°
2026-05-05 10:05 33.33956 108.01574 31850 ft 482 kts 225°
2026-05-05 10:06 33.28809 107.96440 31833 ft 482 kts 226°
2026-05-05 10:06 33.23650 107.91338 31822 ft 482 kts 225°
2026-05-05 10:07 33.18482 107.86245 31818 ft 482 kts 225°
2026-05-05 10:07 33.13307 107.81153 31821 ft 482 kts 225°
2026-05-05 10:08 33.08139 107.76076 31817 ft 481 kts 225°
2026-05-05 10:08 33.02974 107.71004 31808 ft 481 kts 225°
2026-05-05 10:09 32.97799 107.65931 31815 ft 481 kts 225°
2026-05-05 10:09 32.92630 107.60873 31822 ft 481 kts 225°
2026-05-05 10:10 32.87469 107.55828 31827 ft 481 kts 225°
2026-05-05 10:10 32.82332 107.50747 31836 ft 477 kts 229°
2026-05-05 10:11 32.78161 107.44759 31838 ft 468 kts 240°
2026-05-05 10:11 32.74397 107.38469 31838 ft 467 kts 240°
2026-05-05 10:12 32.70619 107.32190 31840 ft 467 kts 239°
2026-05-05 10:12 32.66842 107.25930 31846 ft 466 kts 239°
2026-05-05 10:13 32.63061 107.19672 31847 ft 466 kts 239°
2026-05-05 10:13 32.59234 107.13456 31852 ft 467 kts 238°
2026-05-05 10:14 32.56019 107.08311 31842 ft 467 kts 238°
2026-05-05 10:14 32.52157 107.02125 31849 ft 467 kts 238°
2026-05-05 10:15 32.48304 106.95933 31847 ft 467 kts 238°
2026-05-05 10:15 32.44447 106.89746 31846 ft 467 kts 238°
2026-05-05 10:16 32.40586 106.83562 31846 ft 467 kts 238°
2026-05-05 10:16 32.36724 106.77386 31841 ft 467 kts 238°
2026-05-05 10:17 32.33176 106.71008 31838 ft 460 kts 249°
2026-05-05 10:17 32.31221 106.63911 31834 ft 453 kts 260°
2026-05-05 10:18 32.29679 106.56675 31836 ft 454 kts 259°
2026-05-05 10:18 32.28108 106.49449 31836 ft 454 kts 259°
2026-05-05 10:19 32.26531 106.42233 31833 ft 453 kts 259°
2026-05-05 10:19 32.24956 106.35022 31831 ft 453 kts 259°
2026-05-05 10:20 32.23379 106.27809 31828 ft 453 kts 259°
2026-05-05 10:20 32.21801 106.20605 31826 ft 453 kts 258°
2026-05-05 10:21 32.19275 106.13741 31817 ft 462 kts 242°
2026-05-05 10:21 32.15829 106.07345 31809 ft 462 kts 241°
2026-05-05 10:22 32.12735 106.01595 31807 ft 462 kts 241°
2026-05-05 10:22 32.09299 105.95204 31807 ft 462 kts 241°
2026-05-05 10:23 32.05859 105.88807 31801 ft 461 kts 241°
2026-05-05 10:23 32.02414 105.82426 31806 ft 461 kts 241°
2026-05-05 10:24 31.98962 105.76056 31804 ft 461 kts 241°
2026-05-05 10:24 31.95512 105.69697 31803 ft 460 kts 241°
2026-05-05 10:25 31.92068 105.63349 31805 ft 460 kts 241°
2026-05-05 10:25 31.88623 105.57013 31805 ft 459 kts 241°
2026-05-05 10:26 31.85174 105.50681 31804 ft 459 kts 241°
2026-05-05 10:26 31.81727 105.44362 31804 ft 459 kts 240°
2026-05-05 10:27 31.78300 105.38101 31805 ft 458 kts 240°
2026-05-05 10:27 31.74849 105.31791 31807 ft 458 kts 240°
2026-05-05 10:28 31.71406 105.25492 31670 ft 460 kts 240°
2026-05-05 10:28 31.69675 105.22335 31183 ft 459 kts 240°
2026-05-05 10:28 31.67942 105.19177 30705 ft 461 kts 240°
2026-05-05 10:29 31.66224 105.15993 30235 ft 462 kts 240°
2026-05-05 10:29 31.64522 105.12787 29773 ft 464 kts 240°
2026-05-05 10:29 31.62821 105.09561 29228 ft 466 kts 240°
2026-05-05 10:29 31.61115 105.06327 28710 ft 467 kts 240°
2026-05-05 10:30 31.59359 105.03115 28180 ft 469 kts 236°
2026-05-05 10:30 31.57254 105.00181 27672 ft 472 kts 227°
2026-05-05 10:30 31.54805 104.97603 27168 ft 475 kts 223°
2026-05-05 10:30 31.52289 104.95097 26661 ft 475 kts 223°
2026-05-05 10:31 31.49769 104.92576 26192 ft 476 kts 223°
2026-05-05 10:31 31.47252 104.90049 25711 ft 477 kts 223°
2026-05-05 10:31 31.44733 104.87517 25245 ft 478 kts 223°
2026-05-05 10:31 31.42203 104.84978 24782 ft 479 kts 223°
2026-05-05 10:32 31.39676 104.82445 24330 ft 479 kts 223°
2026-05-05 10:32 31.37136 104.79912 23882 ft 479 kts 222°
2026-05-05 10:32 31.34606 104.77396 23442 ft 476 kts 222°
2026-05-05 10:32 31.32085 104.74895 22950 ft 473 kts 222°
2026-05-05 10:33 31.29588 104.72416 22432 ft 469 kts 222°
2026-05-05 10:33 31.27109 104.69951 21922 ft 466 kts 222°
2026-05-05 10:33 31.24650 104.67502 21412 ft 463 kts 221°
2026-05-05 10:33 31.22065 104.65270 20932 ft 461 kts 214°
2026-05-05 10:34 31.19388 104.63248 20451 ft 458 kts 214°
2026-05-05 10:34 31.16716 104.61232 19974 ft 455 kts 214°
2026-05-05 10:34 31.14090 104.59251 19508 ft 445 kts 214°
2026-05-05 10:34 31.11516 104.57309 19044 ft 436 kts 214°
2026-05-05 10:35 31.08989 104.55400 18589 ft 428 kts 214°
2026-05-05 10:35 31.06516 104.53531 18140 ft 420 kts 214°
2026-05-05 10:35 31.04086 104.51701 17653 ft 413 kts 214°
2026-05-05 10:35 31.01690 104.49901 17144 ft 406 kts 213°
2026-05-05 10:36 30.99334 104.48130 16637 ft 400 kts 213°
2026-05-05 10:36 30.97112 104.46461 16172 ft 395 kts 213°
2026-05-05 10:36 30.95127 104.44969 15753 ft 390 kts 213°
2026-05-05 10:36 30.92858 104.43264 15275 ft 386 kts 213°
2026-05-05 10:37 30.90618 104.41582 14822 ft 381 kts 213°
2026-05-05 10:37 30.88399 104.39916 14342 ft 377 kts 213°
2026-05-05 10:37 30.86209 104.38267 13887 ft 373 kts 213°
2026-05-05 10:37 30.84043 104.36634 13412 ft 369 kts 212°
2026-05-05 10:38 30.81902 104.35022 12924 ft 365 kts 212°
2026-05-05 10:38 30.79777 104.33430 12416 ft 361 kts 212°
2026-05-05 10:38 30.77672 104.31858 11925 ft 357 kts 212°
2026-05-05 10:38 30.75595 104.30306 11442 ft 353 kts 212°
2026-05-05 10:39 30.73541 104.28770 11047 ft 347 kts 212°
2026-05-05 10:39 30.71556 104.27286 10926 ft 332 kts 212°
2026-05-05 10:39 30.69650 104.25863 10812 ft 320 kts 212°
2026-05-05 10:39 30.67815 104.24492 10688 ft 308 kts 212°
2026-05-05 10:40 30.66042 104.23167 10570 ft 298 kts 212°
2026-05-05 10:40 30.64325 104.21884 10441 ft 289 kts 212°
2026-05-05 10:40 30.62651 104.20636 10181 ft 285 kts 212°
2026-05-05 10:40 30.60985 104.19396 9864 ft 284 kts 212°
2026-05-05 10:41 30.59328 104.18162 9533 ft 282 kts 212°
2026-05-05 10:41 30.57675 104.16931 9151 ft 282 kts 212°
2026-05-05 10:41 30.56028 104.15705 8836 ft 281 kts 212°
2026-05-05 10:41 30.54388 104.14483 8488 ft 280 kts 212°
2026-05-05 10:42 30.51129 104.12056 7742 ft 278 kts 212°
2026-05-05 10:42 30.49505 104.10847 7361 ft 277 kts 212°
2026-05-05 10:42 30.47892 104.09646 6999 ft 275 kts 212°
2026-05-05 10:43 30.46280 104.08448 6611 ft 275 kts 211°
2026-05-05 10:43 30.44670 104.07252 6259 ft 274 kts 211°
2026-05-05 10:43 30.43068 104.06064 5881 ft 273 kts 211°
2026-05-05 10:43 30.41469 104.04880 5518 ft 272 kts 211°
2026-05-05 10:44 30.39878 104.03703 5150 ft 270 kts 211°
2026-05-05 10:44 30.38311 104.02541 4922 ft 264 kts 211°
2026-05-05 10:44 30.36806 104.01423 4899 ft 249 kts 211°
2026-05-05 10:44 30.35394 104.00375 4902 ft 234 kts 211°
2026-05-05 10:45 30.34058 103.99384 4897 ft 222 kts 211°
2026-05-05 10:45 30.32769 103.98429 4903 ft 218 kts 211°
2026-05-05 10:45 30.31494 103.97486 4903 ft 217 kts 211°
2026-05-05 10:45 30.30268 103.96470 4901 ft 218 kts 223°
2026-05-05 10:46 30.29375 103.95048 4902 ft 221 kts 243°
2026-05-05 10:46 30.28966 103.93334 4904 ft 224 kts 264°
2026-05-05 10:46 30.29099 103.91541 4901 ft 226 kts 284°
2026-05-05 10:46 30.29660 103.89841 4903 ft 224 kts 291°
2026-05-05 10:47 30.30228 103.88224 4920 ft 210 kts 291°
2026-05-05 10:47 30.30771 103.86678 4908 ft 206 kts 292°
2026-05-05 10:47 30.31466 103.85411 4899 ft 206 kts 313°
2026-05-05 10:47 30.32614 103.84431 4900 ft 206 kts 335°
2026-05-05 10:48 30.33995 103.84032 4899 ft 205 kts 359°
2026-05-05 10:48 30.35397 103.84274 4904 ft 204 kts 21°
2026-05-05 10:48 30.36714 103.84880 4905 ft 204 kts 23°
2026-05-05 10:48 30.38032 103.85493 4904 ft 204 kts 23°
2026-05-05 10:49 30.39352 103.86105 4901 ft 204 kts 24°
2026-05-05 10:49 30.40672 103.86717 4764 ft 203 kts 23°
2026-05-05 10:49 30.41972 103.87320 4530 ft 200 kts 23°
2026-05-05 10:49 30.43257 103.87916 4274 ft 197 kts 23°
2026-05-05 10:50 30.44494 103.88490 4052 ft 186 kts 23°
2026-05-05 10:50 30.45639 103.89020 3812 ft 169 kts 23°
2026-05-05 10:50 30.46701 103.89514 3606 ft 161 kts 23°
2026-05-05 10:50 30.47724 103.89989 3402 ft 158 kts 24°
2026-05-05 10:51 30.48736 103.90459 3202 ft 155 kts 23°
2026-05-05 10:51 30.49740 103.90926 3011 ft 156 kts 23°
2026-05-05 10:51 30.50748 103.91395 2807 ft 157 kts 22°
2026-05-05 10:51 30.51763 103.91867 2603 ft 158 kts 24°
2026-05-05 10:52 30.52775 103.92340 2426 ft 157 kts 24°
2026-05-05 10:52 30.53787 103.92802 2222 ft 155 kts 22°
2026-05-05 10:52 30.54773 103.93262 2006 ft 151 kts 22°
2026-05-05 10:52 30.55742 103.93710 1803 ft 148 kts 22°
2026-05-05 10:53 30.56692 103.94159 1650 ft 144 kts 23°
2026-05-05 10:53 30.57472 103.94525 1646 ft 95 kts 22°
2026-05-05 10:53 30.57875 103.94714 1646 ft 31 kts 22°
2026-05-05 10:53 30.58044 103.94796 1646 ft 24 kts 27°
2026-05-05 10:54 30.58171 103.94921 1646 ft 23 kts 50°
2026-05-05 10:54 30.58241 103.95036 1646 ft 14 kts 87°
2026-05-05 10:54 30.58197 103.95133 1646 ft 13 kts 111°
2026-05-05 10:54 30.58162 103.95228 1646 ft 12 kts 126°
2026-05-05 10:55 30.58093 103.95219 1646 ft 10 kts 206°
2026-05-05 10:55 30.58024 103.95184 1646 ft 14 kts 203°
2026-05-05 10:55 30.57935 103.95146 1646 ft 13 kts 185°
2026-05-05 10:55 30.57901 103.95208 1646 ft 9 kts 65°
2026-05-05 10:56 30.57916 103.95241 1646 ft 5 kts 61°
2026-05-05 10:56 30.57934 103.95278 1646 ft 3 kts 61°
2026-05-05 10:56 30.57939 103.95290 1646 ft 0 kts 61°